Data supplied by UK-AIR on 30/3/2010
All Data GMT hour ending 
Status: R =Ratified P=Provisional,P*=As supplied
,,Ladybower,,,,,,,,,,,,,,,,,,,,,,,
Date,time,"Nitric oxide",status,unit,"Nitrogen dioxide",status,unit,"Nitrogen oxides as nitrogen dioxide",status,unit,"Ozone",status,unit,"Sulphur dioxide",status,unit
 
01-01-2009,01:00,,,,,,,,,,,,,,,
01-01-2009,02:00,5.1,R,ugm-3,56.0,R,ugm-3,63.8,R,ugm-3,4,R,ugm-3,11.4,R,ugm-3
01-01-2009,03:00,6.8,R,ugm-3,55.8,R,ugm-3,66.1,R,ugm-3,2,R,ugm-3,10.9,R,ugm-3
01-01-2009,04:00,1.3,R,ugm-3,37.1,R,ugm-3,39.0,R,ugm-3,14,R,ugm-3,6.7,R,ugm-3
01-01-2009,05:00,1.3,R,ugm-3,28.7,R,ugm-3,30.6,R,ugm-3,22,R,ugm-3,4.3,R,ugm-3
01-01-2009,06:00,2.9,R,ugm-3,47.4,R,ugm-3,51.8,R,ugm-3,10,R,ugm-3,9.6,R,ugm-3
01-01-2009,07:00,5.1,R,ugm-3,54.8,R,ugm-3,62.6,R,ugm-3,2,R,ugm-3,12.5,R,ugm-3
01-01-2009,08:00,1.3,R,ugm-3,55.4,R,ugm-3,57.3,R,ugm-3,2,R,ugm-3,11.4,R,ugm-3
01-01-2009,09:00,1.6,R,ugm-3,50.4,R,ugm-3,52.9,R,ugm-3,6,R,ugm-3,10.9,R,ugm-3
01-01-2009,10:00,3.6,R,ugm-3,40.5,R,ugm-3,46.0,R,ugm-3,14,R,ugm-3,7.4,R,ugm-3
01-01-2009,11:00,5.5,R,ugm-3,34.0,R,ugm-3,42.4,R,ugm-3,18,R,ugm-3,9.0,R,ugm-3
01-01-2009,12:00,3.9,R,ugm-3,25.2,R,ugm-3,31.1,R,ugm-3,24,R,ugm-3,4.8,R,ugm-3
01-01-2009,13:00,2.3,R,ugm-3,19.3,R,ugm-3,22.7,R,ugm-3,28,R,ugm-3,3.7,R,ugm-3
01-01-2009,14:00,1.6,R,ugm-3,18.9,R,ugm-3,21.4,R,ugm-3,32,R,ugm-3,3.7,R,ugm-3
01-01-2009,15:00,2.0,R,ugm-3,21.2,R,ugm-3,24.3,R,ugm-3,28,R,ugm-3,5.6,R,ugm-3
01-01-2009,16:00,1.3,R,ugm-3,23.3,R,ugm-3,25.2,R,ugm-3,22,R,ugm-3,13.8,R,ugm-3
01-01-2009,17:00,1.3,R,ugm-3,15.9,R,ugm-3,17.8,R,ugm-3,22,R,ugm-3,5.6,R,ugm-3
01-01-2009,18:00,1.0,R,ugm-3,9.0,R,ugm-3,10.5,R,ugm-3,28,R,ugm-3,3.7,R,ugm-3
01-01-2009,19:00,1.3,R,ugm-3,8.6,R,ugm-3,10.5,R,ugm-3,30,R,ugm-3,1.3,R,ugm-3
01-01-2009,20:00,1.3,R,ugm-3,6.5,R,ugm-3,8.4,R,ugm-3,34,R,ugm-3,0.0,R,ugm-3
01-01-2009,21:00,1.0,R,ugm-3,5.0,R,ugm-3,6.5,R,ugm-3,36,R,ugm-3,0.0,R,ugm-3
01-01-2009,22:00,1.3,R,ugm-3,5.5,R,ugm-3,7.4,R,ugm-3,36,R,ugm-3,0.0,R,ugm-3
01-01-2009,23:00,1.3,R,ugm-3,15.9,R,ugm-3,17.8,R,ugm-3,28,R,ugm-3,0.0,R,ugm-3
01-01-2009,24:00,1.3,R,ugm-3,13.4,R,ugm-3,15.3,R,ugm-3,30,R,ugm-3,0.0,R,ugm-3
02-01-2009,01:00,1.3,R,ugm-3,8.6,R,ugm-3,10.5,R,ugm-3,30,R,ugm-3,1.9,R,ugm-3
02-01-2009,02:00,0.9,R,ugm-3,4.0,R,ugm-3,5.3,R,ugm-3,36,R,ugm-3,1.9,R,ugm-3
02-01-2009,03:00,1.3,R,ugm-3,4.0,R,ugm-3,5.9,R,ugm-3,42,R,ugm-3,1.9,R,ugm-3
02-01-2009,04:00,1.3,R,ugm-3,4.6,R,ugm-3,6.5,R,ugm-3,42,R,ugm-3,1.9,R,ugm-3
02-01-2009,05:00,1.3,R,ugm-3,6.5,R,ugm-3,8.4,R,ugm-3,42,R,ugm-3,2.4,R,ugm-3
02-01-2009,06:00,1.3,R,ugm-3,7.1,R,ugm-3,9.0,R,ugm-3,38,R,ugm-3,2.4,R,ugm-3
02-01-2009,07:00,1.0,R,ugm-3,3.1,R,ugm-3,4.6,R,ugm-3,50,R,ugm-3,1.9,R,ugm-3
02-01-2009,08:00,1.0,R,ugm-3,3.1,R,ugm-3,4.6,R,ugm-3,46,R,ugm-3,2.9,R,ugm-3
02-01-2009,09:00,1.3,R,ugm-3,1.5,R,ugm-3,3.4,R,ugm-3,48,R,ugm-3,1.1,R,ugm-3
02-01-2009,10:00,1.3,R,ugm-3,5.5,R,ugm-3,7.4,R,ugm-3,44,R,ugm-3,1.9,R,ugm-3
02-01-2009,11:00,1.3,R,ugm-3,9.0,R,ugm-3,10.9,R,ugm-3,46,R,ugm-3,1.9,R,ugm-3
02-01-2009,12:00,1.3,R,ugm-3,13.0,R,ugm-3,14.9,R,ugm-3,44,R,ugm-3,4.3,R,ugm-3
02-01-2009,13:00,2.0,R,ugm-3,10.9,R,ugm-3,13.9,R,ugm-3,46,R,ugm-3,3.7,R,ugm-3
02-01-2009,14:00,2.3,R,ugm-3,11.3,R,ugm-3,14.7,R,ugm-3,48,R,ugm-3,4.3,R,ugm-3
02-01-2009,15:00,1.3,R,ugm-3,9.6,R,ugm-3,11.5,R,ugm-3,48,R,ugm-3,1.9,R,ugm-3
02-01-2009,16:00,1.3,R,ugm-3,10.9,R,ugm-3,12.8,R,ugm-3,44,R,ugm-3,2.4,R,ugm-3
02-01-2009,17:00,1.3,R,ugm-3,6.1,R,ugm-3,8.0,R,ugm-3,46,R,ugm-3,1.9,R,ugm-3
02-01-2009,18:00,1.3,R,ugm-3,2.5,R,ugm-3,4.4,R,ugm-3,54,R,ugm-3,1.9,R,ugm-3
02-01-2009,19:00,1.3,R,ugm-3,5.0,R,ugm-3,6.9,R,ugm-3,50,R,ugm-3,1.9,R,ugm-3
02-01-2009,20:00,1.0,R,ugm-3,8.6,R,ugm-3,10.1,R,ugm-3,46,R,ugm-3,2.4,R,ugm-3
02-01-2009,21:00,1.3,R,ugm-3,11.5,R,ugm-3,13.4,R,ugm-3,44,R,ugm-3,5.1,R,ugm-3
02-01-2009,22:00,1.3,R,ugm-3,13.9,R,ugm-3,15.9,R,ugm-3,40,R,ugm-3,5.6,R,ugm-3
02-01-2009,23:00,1.3,R,ugm-3,12.8,R,ugm-3,14.7,R,ugm-3,40,R,ugm-3,6.7,R,ugm-3
02-01-2009,24:00,1.3,R,ugm-3,22.3,R,ugm-3,24.3,R,ugm-3,32,R,ugm-3,9.3,R,ugm-3
03-01-2009,01:00,1.3,R,ugm-3,31.7,R,ugm-3,33.6,R,ugm-3,24,R,ugm-3,11.4,R,ugm-3
03-01-2009,02:00,1.3,R,ugm-3,22.3,R,ugm-3,24.3,R,ugm-3,26,R,ugm-3,11.4,R,ugm-3
03-01-2009,03:00,1.3,R,ugm-3,12.4,R,ugm-3,14.3,R,ugm-3,36,R,ugm-3,8.5,R,ugm-3
03-01-2009,04:00,1.0,R,ugm-3,10.5,R,ugm-3,12.0,R,ugm-3,42,R,ugm-3,5.1,R,ugm-3
03-01-2009,05:00,1.3,R,ugm-3,8.0,R,ugm-3,9.9,R,ugm-3,44,R,ugm-3,3.7,R,ugm-3
03-01-2009,06:00,1.3,R,ugm-3,6.5,R,ugm-3,8.4,R,ugm-3,44,R,ugm-3,3.7,R,ugm-3
03-01-2009,07:00,1.3,R,ugm-3,5.0,R,ugm-3,6.9,R,ugm-3,44,R,ugm-3,3.7,R,ugm-3
03-01-2009,08:00,1.3,R,ugm-3,2.5,R,ugm-3,4.4,R,ugm-3,48,R,ugm-3,1.9,R,ugm-3
03-01-2009,09:00,0.6,R,ugm-3,1.0,R,ugm-3,1.9,R,ugm-3,48,R,ugm-3,1.9,R,ugm-3
03-01-2009,10:00,1.3,R,ugm-3,0.6,R,ugm-3,2.5,R,ugm-3,54,R,ugm-3,3.2,R,ugm-3
03-01-2009,11:00,1.3,R,ugm-3,4.0,R,ugm-3,5.9,R,ugm-3,56,R,ugm-3,4.3,R,ugm-3
03-01-2009,12:00,1.3,R,ugm-3,3.6,R,ugm-3,5.5,R,ugm-3,58,R,ugm-3,3.7,R,ugm-3
03-01-2009,13:00,1.3,R,ugm-3,3.6,R,ugm-3,5.5,R,ugm-3,60,R,ugm-3,3.7,R,ugm-3
03-01-2009,14:00,1.3,R,ugm-3,9.9,R,ugm-3,11.8,R,ugm-3,54,R,ugm-3,2.4,R,ugm-3
03-01-2009,15:00,1.3,R,ugm-3,19.3,R,ugm-3,21.2,R,ugm-3,44,R,ugm-3,2.9,R,ugm-3
03-01-2009,16:00,1.3,R,ugm-3,15.5,R,ugm-3,17.4,R,ugm-3,46,R,ugm-3,1.3,R,ugm-3
03-01-2009,17:00,1.0,R,ugm-3,10.9,R,ugm-3,12.4,R,ugm-3,52,R,ugm-3,0.0,R,ugm-3
03-01-2009,18:00,1.3,R,ugm-3,8.0,R,ugm-3,9.9,R,ugm-3,50,R,ugm-3,1.3,R,ugm-3
03-01-2009,19:00,1.3,R,ugm-3,12.0,R,ugm-3,13.9,R,ugm-3,48,R,ugm-3,1.1,R,ugm-3
03-01-2009,20:00,1.3,R,ugm-3,21.8,R,ugm-3,23.7,R,ugm-3,40,R,ugm-3,1.9,R,ugm-3
03-01-2009,21:00,1.3,R,ugm-3,16.8,R,ugm-3,18.7,R,ugm-3,46,R,ugm-3,1.9,R,ugm-3
03-01-2009,22:00,1.3,R,ugm-3,20.8,R,ugm-3,22.7,R,ugm-3,44,R,ugm-3,3.2,R,ugm-3
03-01-2009,23:00,1.3,R,ugm-3,22.3,R,ugm-3,24.3,R,ugm-3,40,R,ugm-3,3.7,R,ugm-3
03-01-2009,24:00,1.3,R,ugm-3,18.3,R,ugm-3,20.2,R,ugm-3,42,R,ugm-3,5.1,R,ugm-3
04-01-2009,01:00,1.3,R,ugm-3,10.7,R,ugm-3,12.6,R,ugm-3,44,R,ugm-3,5.6,R,ugm-3
04-01-2009,02:00,0.9,R,ugm-3,10.5,R,ugm-3,11.8,R,ugm-3,44,R,ugm-3,6.1,R,ugm-3
04-01-2009,03:00,1.3,R,ugm-3,13.4,R,ugm-3,15.3,R,ugm-3,44,R,ugm-3,5.6,R,ugm-3
04-01-2009,04:00,1.3,R,ugm-3,13.0,R,ugm-3,14.9,R,ugm-3,42,R,ugm-3,7.4,R,ugm-3
04-01-2009,05:00,1.0,R,ugm-3,8.0,R,ugm-3,9.6,R,ugm-3,48,R,ugm-3,5.6,R,ugm-3
04-01-2009,06:00,1.0,R,ugm-3,7.4,R,ugm-3,9.0,R,ugm-3,48,R,ugm-3,6.1,R,ugm-3
04-01-2009,07:00,1.0,R,ugm-3,8.4,R,ugm-3,9.9,R,ugm-3,44,R,ugm-3,10.4,R,ugm-3
04-01-2009,08:00,1.3,R,ugm-3,4.6,R,ugm-3,6.5,R,ugm-3,50,R,ugm-3,6.9,R,ugm-3
04-01-2009,09:00,1.0,R,ugm-3,4.0,R,ugm-3,5.5,R,ugm-3,48,R,ugm-3,6.7,R,ugm-3
04-01-2009,10:00,1.0,R,ugm-3,6.5,R,ugm-3,8.0,R,ugm-3,46,R,ugm-3,7.4,R,ugm-3
04-01-2009,11:00,1.3,R,ugm-3,5.9,R,ugm-3,7.8,R,ugm-3,44,R,ugm-3,6.9,R,ugm-3
04-01-2009,12:00,1.3,R,ugm-3,6.5,R,ugm-3,8.4,R,ugm-3,44,R,ugm-3,6.1,R,ugm-3
04-01-2009,13:00,1.3,R,ugm-3,10.5,R,ugm-3,12.4,R,ugm-3,42,R,ugm-3,5.6,R,ugm-3
04-01-2009,14:00,1.3,R,ugm-3,12.4,R,ugm-3,14.3,R,ugm-3,38,R,ugm-3,1.9,R,ugm-3
04-01-2009,15:00,1.3,R,ugm-3,14.9,R,ugm-3,16.8,R,ugm-3,36,R,ugm-3,1.9,R,ugm-3
04-01-2009,16:00,1.3,R,ugm-3,16.8,R,ugm-3,18.7,R,ugm-3,34,R,ugm-3,1.9,R,ugm-3
04-01-2009,17:00,1.3,R,ugm-3,18.3,R,ugm-3,20.2,R,ugm-3,30,R,ugm-3,1.3,R,ugm-3
04-01-2009,18:00,1.6,R,ugm-3,23.3,R,ugm-3,25.8,R,ugm-3,30,R,ugm-3,1.9,R,ugm-3
04-01-2009,19:00,1.0,R,ugm-3,24.3,R,ugm-3,25.8,R,ugm-3,30,R,ugm-3,1.9,R,ugm-3
04-01-2009,20:00,1.3,R,ugm-3,29.6,R,ugm-3,31.5,R,ugm-3,24,R,ugm-3,1.9,R,ugm-3
04-01-2009,21:00,0.6,R,ugm-3,22.7,R,ugm-3,23.7,R,ugm-3,24,R,ugm-3,1.9,R,ugm-3
04-01-2009,22:00,1.3,R,ugm-3,8.4,R,ugm-3,10.3,R,ugm-3,42,R,ugm-3,1.9,R,ugm-3
04-01-2009,23:00,0.6,R,ugm-3,5.0,R,ugm-3,5.9,R,ugm-3,46,R,ugm-3,1.9,R,ugm-3
04-01-2009,24:00,1.0,R,ugm-3,1.5,R,ugm-3,3.1,R,ugm-3,46,R,ugm-3,1.3,R,ugm-3
05-01-2009,01:00,1.3,R,ugm-3,2.1,R,ugm-3,4.0,R,ugm-3,44,R,ugm-3,1.9,R,ugm-3
05-01-2009,02:00,1.3,R,ugm-3,4.0,R,ugm-3,5.9,R,ugm-3,46,R,ugm-3,1.3,R,ugm-3
05-01-2009,03:00,1.0,R,ugm-3,4.0,R,ugm-3,5.5,R,ugm-3,50,R,ugm-3,1.1,R,ugm-3
05-01-2009,04:00,1.0,R,ugm-3,0.6,R,ugm-3,2.1,R,ugm-3,56,R,ugm-3,0.5,R,ugm-3
05-01-2009,05:00,1.0,R,ugm-3,0.6,R,ugm-3,2.1,R,ugm-3,58,R,ugm-3,0.5,R,ugm-3
05-01-2009,06:00,1.3,R,ugm-3,0.6,R,ugm-3,2.5,R,ugm-3,58,R,ugm-3,0.5,R,ugm-3
05-01-2009,07:00,1.3,R,ugm-3,2.1,R,ugm-3,4.0,R,ugm-3,58,R,ugm-3,1.3,R,ugm-3
05-01-2009,08:00,1.3,R,ugm-3,5.0,R,ugm-3,6.9,R,ugm-3,58,R,ugm-3,1.9,R,ugm-3
05-01-2009,09:00,1.3,R,ugm-3,10.5,R,ugm-3,12.4,R,ugm-3,52,R,ugm-3,3.7,R,ugm-3
05-01-2009,10:00,1.3,R,ugm-3,14.3,R,ugm-3,16.2,R,ugm-3,50,R,ugm-3,4.8,R,ugm-3
05-01-2009,11:00,1.6,R,ugm-3,15.3,R,ugm-3,17.8,R,ugm-3,52,R,ugm-3,3.2,R,ugm-3
05-01-2009,12:00,1.6,R,ugm-3,10.3,R,ugm-3,12.8,R,ugm-3,58,R,ugm-3,1.9,R,ugm-3
05-01-2009,13:00,1.3,R,ugm-3,11.8,R,ugm-3,13.8,R,ugm-3,58,R,ugm-3,1.9,R,ugm-3
05-01-2009,14:00,2.0,R,ugm-3,14.9,R,ugm-3,18.0,R,ugm-3,54,R,ugm-3,3.7,R,ugm-3
05-01-2009,15:00,1.3,R,ugm-3,10.9,R,ugm-3,12.8,R,ugm-3,56,R,ugm-3,2.9,R,ugm-3
05-01-2009,16:00,1.3,R,ugm-3,6.5,R,ugm-3,8.4,R,ugm-3,62,R,ugm-3,1.9,R,ugm-3
05-01-2009,17:00,1.3,R,ugm-3,9.9,R,ugm-3,11.8,R,ugm-3,58,R,ugm-3,2.4,R,ugm-3
05-01-2009,18:00,,,,,,,,,,,,,,,
05-01-2009,19:00,,,,,,,,,,,,,,,
05-01-2009,20:00,1.3,R,ugm-3,13.9,R,ugm-3,15.9,R,ugm-3,52,R,ugm-3,1.9,R,ugm-3
05-01-2009,21:00,1.3,R,ugm-3,16.4,R,ugm-3,18.3,R,ugm-3,48,R,ugm-3,3.2,R,ugm-3
05-01-2009,22:00,1.3,R,ugm-3,18.3,R,ugm-3,20.2,R,ugm-3,44,R,ugm-3,5.6,R,ugm-3
05-01-2009,23:00,1.3,R,ugm-3,12.8,R,ugm-3,14.7,R,ugm-3,48,R,ugm-3,5.6,R,ugm-3
05-01-2009,24:00,1.3,R,ugm-3,10.5,R,ugm-3,12.4,R,ugm-3,54,R,ugm-3,5.6,R,ugm-3
06-01-2009,01:00,1.3,R,ugm-3,11.8,R,ugm-3,13.8,R,ugm-3,50,R,ugm-3,5.6,R,ugm-3
06-01-2009,02:00,1.3,R,ugm-3,4.0,R,ugm-3,5.9,R,ugm-3,60,R,ugm-3,1.9,R,ugm-3
06-01-2009,03:00,1.0,R,ugm-3,2.7,R,ugm-3,4.2,R,ugm-3,58,R,ugm-3,1.9,R,ugm-3
06-01-2009,04:00,1.0,R,ugm-3,1.0,R,ugm-3,2.5,R,ugm-3,54,R,ugm-3,1.9,R,ugm-3
06-01-2009,05:00,1.0,R,ugm-3,0.6,R,ugm-3,2.1,R,ugm-3,56,R,ugm-3,1.9,R,ugm-3
06-01-2009,06:00,1.3,R,ugm-3,0.0,R,ugm-3,1.9,R,ugm-3,52,R,ugm-3,1.1,R,ugm-3
06-01-2009,07:00,1.3,R,ugm-3,2.1,R,ugm-3,4.0,R,ugm-3,50,R,ugm-3,1.3,R,ugm-3
06-01-2009,08:00,1.3,R,ugm-3,3.6,R,ugm-3,5.5,R,ugm-3,48,R,ugm-3,1.9,R,ugm-3
06-01-2009,09:00,1.3,R,ugm-3,2.1,R,ugm-3,4.0,R,ugm-3,50,R,ugm-3,1.9,R,ugm-3
06-01-2009,10:00,1.3,R,ugm-3,2.7,R,ugm-3,4.6,R,ugm-3,52,R,ugm-3,1.9,R,ugm-3
06-01-2009,11:00,1.3,R,ugm-3,4.0,R,ugm-3,5.9,R,ugm-3,46,R,ugm-3,1.9,R,ugm-3
06-01-2009,12:00,1.3,R,ugm-3,0.6,R,ugm-3,2.5,R,ugm-3,58,R,ugm-3,2.4,R,ugm-3
06-01-2009,13:00,1.3,R,ugm-3,3.1,R,ugm-3,5.0,R,ugm-3,62,R,ugm-3,1.9,R,ugm-3
06-01-2009,14:00,2.3,R,ugm-3,11.5,R,ugm-3,14.9,R,ugm-3,58,R,ugm-3,3.2,R,ugm-3
06-01-2009,15:00,21.5,R,ugm-3,57.9,R,ugm-3,90.7,R,ugm-3,26,R,ugm-3,5.6,R,ugm-3
06-01-2009,16:00,21.9,R,ugm-3,75.6,R,ugm-3,109.1,R,ugm-3,10,R,ugm-3,5.6,R,ugm-3
06-01-2009,17:00,16.4,R,ugm-3,83.5,R,ugm-3,108.5,R,ugm-3,4,R,ugm-3,6.1,R,ugm-3
06-01-2009,18:00,9.4,R,ugm-3,77.0,R,ugm-3,91.3,R,ugm-3,4,R,ugm-3,7.4,R,ugm-3
06-01-2009,19:00,1.0,R,ugm-3,45.8,R,ugm-3,47.4,R,ugm-3,24,R,ugm-3,5.6,R,ugm-3
06-01-2009,20:00,1.3,R,ugm-3,36.1,R,ugm-3,38.0,R,ugm-3,34,R,ugm-3,5.6,R,ugm-3
06-01-2009,21:00,1.3,R,ugm-3,38.6,R,ugm-3,40.5,R,ugm-3,30,R,ugm-3,5.6,R,ugm-3
06-01-2009,22:00,1.3,R,ugm-3,43.9,R,ugm-3,45.8,R,ugm-3,26,R,ugm-3,5.6,R,ugm-3
06-01-2009,23:00,1.3,R,ugm-3,40.5,R,ugm-3,42.4,R,ugm-3,28,R,ugm-3,4.8,R,ugm-3
06-01-2009,24:00,1.3,R,ugm-3,29.6,R,ugm-3,31.5,R,ugm-3,36,R,ugm-3,3.2,R,ugm-3
07-01-2009,01:00,1.3,R,ugm-3,23.1,R,ugm-3,25.0,R,ugm-3,36,R,ugm-3,2.4,R,ugm-3
07-01-2009,02:00,1.3,R,ugm-3,15.9,R,ugm-3,17.8,R,ugm-3,42,R,ugm-3,1.9,R,ugm-3
07-01-2009,03:00,1.0,R,ugm-3,14.3,R,ugm-3,15.9,R,ugm-3,42,R,ugm-3,1.9,R,ugm-3
07-01-2009,04:00,0.6,R,ugm-3,14.3,R,ugm-3,15.3,R,ugm-3,42,R,ugm-3,1.9,R,ugm-3
07-01-2009,05:00,1.3,R,ugm-3,9.0,R,ugm-3,10.9,R,ugm-3,46,R,ugm-3,1.9,R,ugm-3
07-01-2009,06:00,0.4,R,ugm-3,5.0,R,ugm-3,5.5,R,ugm-3,50,R,ugm-3,1.9,R,ugm-3
07-01-2009,07:00,1.0,R,ugm-3,3.6,R,ugm-3,5.2,R,ugm-3,50,R,ugm-3,1.9,R,ugm-3
07-01-2009,08:00,0.0,R,ugm-3,8.4,R,ugm-3,8.4,R,ugm-3,46,R,ugm-3,1.9,R,ugm-3
07-01-2009,09:00,1.3,R,ugm-3,9.6,R,ugm-3,11.5,R,ugm-3,44,R,ugm-3,1.9,R,ugm-3
07-01-2009,10:00,1.3,R,ugm-3,11.8,R,ugm-3,13.8,R,ugm-3,42,R,ugm-3,1.9,R,ugm-3
07-01-2009,11:00,1.3,R,ugm-3,13.0,R,ugm-3,14.9,R,ugm-3,42,R,ugm-3,1.9,R,ugm-3
07-01-2009,12:00,2.0,R,ugm-3,18.3,R,ugm-3,21.4,R,ugm-3,36,R,ugm-3,1.9,R,ugm-3
07-01-2009,13:00,4.5,R,ugm-3,25.6,R,ugm-3,32.5,R,ugm-3,30,R,ugm-3,1.9,R,ugm-3
07-01-2009,14:00,2.9,R,ugm-3,24.1,R,ugm-3,28.5,R,ugm-3,34,R,ugm-3,1.9,R,ugm-3
07-01-2009,15:00,2.0,R,ugm-3,23.1,R,ugm-3,26.2,R,ugm-3,34,R,ugm-3,1.9,R,ugm-3
07-01-2009,16:00,1.3,R,ugm-3,17.8,R,ugm-3,19.7,R,ugm-3,38,R,ugm-3,1.9,R,ugm-3
07-01-2009,17:00,1.3,R,ugm-3,14.9,R,ugm-3,16.8,R,ugm-3,40,R,ugm-3,1.3,R,ugm-3
07-01-2009,18:00,1.3,R,ugm-3,15.5,R,ugm-3,17.4,R,ugm-3,38,R,ugm-3,1.9,R,ugm-3
07-01-2009,19:00,1.0,R,ugm-3,12.8,R,ugm-3,14.3,R,ugm-3,38,R,ugm-3,1.9,R,ugm-3
07-01-2009,20:00,1.3,R,ugm-3,17.4,R,ugm-3,19.3,R,ugm-3,32,R,ugm-3,1.9,R,ugm-3
07-01-2009,21:00,1.3,R,ugm-3,16.8,R,ugm-3,18.7,R,ugm-3,30,R,ugm-3,1.9,R,ugm-3
07-01-2009,22:00,1.3,R,ugm-3,16.4,R,ugm-3,18.3,R,ugm-3,28,R,ugm-3,1.9,R,ugm-3
07-01-2009,23:00,1.3,R,ugm-3,17.8,R,ugm-3,19.7,R,ugm-3,28,R,ugm-3,1.9,R,ugm-3
07-01-2009,24:00,1.3,R,ugm-3,15.5,R,ugm-3,17.4,R,ugm-3,30,R,ugm-3,1.9,R,ugm-3
08-01-2009,01:00,0.0,R,ugm-3,11.8,R,ugm-3,11.8,R,ugm-3,34,R,ugm-3,1.9,R,ugm-3
08-01-2009,02:00,0.0,R,ugm-3,5.9,R,ugm-3,5.9,R,ugm-3,36,R,ugm-3,1.9,R,ugm-3
08-01-2009,03:00,0.0,R,ugm-3,5.9,R,ugm-3,5.9,R,ugm-3,32,R,ugm-3,3.2,R,ugm-3
08-01-2009,04:00,0.0,R,ugm-3,5.5,R,ugm-3,5.5,R,ugm-3,28,R,ugm-3,1.9,R,ugm-3
08-01-2009,05:00,0.0,R,ugm-3,4.6,R,ugm-3,4.6,R,ugm-3,24,R,ugm-3,1.9,R,ugm-3
08-01-2009,06:00,0.0,R,ugm-3,5.9,R,ugm-3,5.9,R,ugm-3,32,R,ugm-3,1.9,R,ugm-3
08-01-2009,07:00,0.0,R,ugm-3,5.5,R,ugm-3,5.5,R,ugm-3,36,R,ugm-3,1.9,R,ugm-3
08-01-2009,08:00,0.0,R,ugm-3,3.1,R,ugm-3,3.1,R,ugm-3,34,R,ugm-3,1.9,R,ugm-3
08-01-2009,09:00,0.0,R,ugm-3,2.5,R,ugm-3,2.5,R,ugm-3,40,R,ugm-3,1.9,R,ugm-3
08-01-2009,10:00,0.0,R,ugm-3,1.9,R,ugm-3,1.9,R,ugm-3,48,R,ugm-3,1.9,R,ugm-3
08-01-2009,11:00,0.0,R,ugm-3,3.1,R,ugm-3,3.1,R,ugm-3,48,R,ugm-3,1.9,R,ugm-3
08-01-2009,12:00,0.0,R,ugm-3,3.4,R,ugm-3,3.4,R,ugm-3,52,R,ugm-3,6.1,R,ugm-3
08-01-2009,13:00,0.0,R,ugm-3,3.4,R,ugm-3,3.4,R,ugm-3,54,R,ugm-3,8.5,R,ugm-3
08-01-2009,14:00,0.0,R,ugm-3,2.5,R,ugm-3,2.5,R,ugm-3,58,R,ugm-3,3.7,R,ugm-3
08-01-2009,15:00,0.0,R,ugm-3,5.5,R,ugm-3,5.5,R,ugm-3,54,R,ugm-3,2.4,R,ugm-3
08-01-2009,16:00,0.0,R,ugm-3,3.4,R,ugm-3,3.4,R,ugm-3,44,R,ugm-3,2.4,R,ugm-3
08-01-2009,17:00,0.6,R,ugm-3,3.4,R,ugm-3,4.4,R,ugm-3,28,R,ugm-3,1.9,R,ugm-3
08-01-2009,18:00,0.0,R,ugm-3,5.3,R,ugm-3,5.3,R,ugm-3,28,R,ugm-3,1.9,R,ugm-3
08-01-2009,19:00,0.0,R,ugm-3,7.8,R,ugm-3,7.8,R,ugm-3,28,R,ugm-3,1.9,R,ugm-3
08-01-2009,20:00,0.0,R,ugm-3,4.0,R,ugm-3,4.0,R,ugm-3,30,R,ugm-3,1.1,R,ugm-3
08-01-2009,21:00,0.0,R,ugm-3,7.8,R,ugm-3,7.8,R,ugm-3,30,R,ugm-3,0.5,R,ugm-3
08-01-2009,22:00,0.0,R,ugm-3,5.9,R,ugm-3,5.9,R,ugm-3,26,R,ugm-3,0.5,R,ugm-3
08-01-2009,23:00,0.0,R,ugm-3,14.7,R,ugm-3,14.7,R,ugm-3,26,R,ugm-3,1.9,R,ugm-3
08-01-2009,24:00,0.0,R,ugm-3,34.0,R,ugm-3,34.0,R,ugm-3,8,R,ugm-3,1.9,R,ugm-3
09-01-2009,01:00,0.0,R,ugm-3,28.3,R,ugm-3,28.3,R,ugm-3,12,R,ugm-3,0.0,R,ugm-3
09-01-2009,02:00,0.0,R,ugm-3,28.3,R,ugm-3,28.3,R,ugm-3,12,R,ugm-3,0.0,R,ugm-3
09-01-2009,03:00,0.0,R,ugm-3,33.0,R,ugm-3,33.0,R,ugm-3,6,R,ugm-3,0.0,R,ugm-3
09-01-2009,04:00,0.0,R,ugm-3,29.0,R,ugm-3,29.0,R,ugm-3,6,R,ugm-3,0.0,R,ugm-3
09-01-2009,05:00,0.0,R,ugm-3,23.7,R,ugm-3,23.7,R,ugm-3,8,R,ugm-3,0.5,R,ugm-3
09-01-2009,06:00,0.0,R,ugm-3,23.1,R,ugm-3,23.1,R,ugm-3,12,R,ugm-3,2.4,R,ugm-3
09-01-2009,07:00,0.0,R,ugm-3,21.2,R,ugm-3,21.2,R,ugm-3,14,R,ugm-3,0.0,R,ugm-3
09-01-2009,08:00,0.0,R,ugm-3,17.8,R,ugm-3,17.8,R,ugm-3,10,R,ugm-3,0.0,R,ugm-3
09-01-2009,09:00,2.6,R,ugm-3,22.7,R,ugm-3,26.7,R,ugm-3,10,R,ugm-3,1.1,R,ugm-3
09-01-2009,10:00,2.9,R,ugm-3,25.2,R,ugm-3,29.6,R,ugm-3,14,R,ugm-3,1.9,R,ugm-3
09-01-2009,11:00,3.0,R,ugm-3,24.6,R,ugm-3,29.2,R,ugm-3,20,R,ugm-3,1.9,R,ugm-3
09-01-2009,12:00,0.4,R,ugm-3,13.9,R,ugm-3,14.5,R,ugm-3,32,R,ugm-3,0.5,R,ugm-3
09-01-2009,13:00,0.0,R,ugm-3,11.5,R,ugm-3,11.5,R,ugm-3,38,R,ugm-3,0.0,R,ugm-3
09-01-2009,14:00,0.4,R,ugm-3,17.8,R,ugm-3,18.3,R,ugm-3,36,R,ugm-3,1.3,R,ugm-3
09-01-2009,15:00,1.0,R,ugm-3,23.7,R,ugm-3,25.2,R,ugm-3,32,R,ugm-3,8.8,R,ugm-3
09-01-2009,16:00,0.0,R,ugm-3,29.6,R,ugm-3,29.6,R,ugm-3,28,R,ugm-3,12.2,R,ugm-3
09-01-2009,17:00,0.6,R,ugm-3,47.8,R,ugm-3,48.7,R,ugm-3,10,R,ugm-3,14.9,R,ugm-3
09-01-2009,18:00,0.4,R,ugm-3,54.6,R,ugm-3,55.2,R,ugm-3,4,R,ugm-3,14.4,R,ugm-3
09-01-2009,19:00,3.3,R,ugm-3,61.5,R,ugm-3,66.5,R,ugm-3,0,R,ugm-3,16.5,R,ugm-3
09-01-2009,20:00,6.5,R,ugm-3,62.1,R,ugm-3,72.0,R,ugm-3,0,R,ugm-3,14.9,R,ugm-3
09-01-2009,21:00,2.0,R,ugm-3,60.5,R,ugm-3,63.6,R,ugm-3,2,R,ugm-3,11.2,R,ugm-3
09-01-2009,22:00,2.9,R,ugm-3,60.5,R,ugm-3,64.9,R,ugm-3,2,R,ugm-3,8.8,R,ugm-3
09-01-2009,23:00,0.6,R,ugm-3,58.6,R,ugm-3,59.6,R,ugm-3,2,R,ugm-3,4.8,R,ugm-3
09-01-2009,24:00,0.6,R,ugm-3,58.3,R,ugm-3,59.2,R,ugm-3,2,R,ugm-3,9.8,R,ugm-3
10-01-2009,01:00,14.9,R,ugm-3,54.6,R,ugm-3,77.4,R,ugm-3,0,R,ugm-3,11.7,R,ugm-3
10-01-2009,02:00,1.3,R,ugm-3,29.6,R,ugm-3,31.5,R,ugm-3,28,R,ugm-3,11.2,R,ugm-3
10-01-2009,03:00,1.3,R,ugm-3,32.5,R,ugm-3,34.4,R,ugm-3,22,R,ugm-3,8.0,R,ugm-3
10-01-2009,04:00,1.3,R,ugm-3,32.5,R,ugm-3,34.4,R,ugm-3,18,R,ugm-3,5.1,R,ugm-3
10-01-2009,05:00,1.3,R,ugm-3,35.0,R,ugm-3,36.9,R,ugm-3,16,R,ugm-3,3.7,R,ugm-3
10-01-2009,06:00,1.3,R,ugm-3,32.5,R,ugm-3,34.4,R,ugm-3,16,R,ugm-3,3.7,R,ugm-3
10-01-2009,07:00,1.3,R,ugm-3,35.9,R,ugm-3,37.8,R,ugm-3,14,R,ugm-3,3.7,R,ugm-3
10-01-2009,08:00,1.3,R,ugm-3,13.4,R,ugm-3,15.3,R,ugm-3,32,R,ugm-3,3.2,R,ugm-3
10-01-2009,09:00,1.3,R,ugm-3,15.9,R,ugm-3,17.8,R,ugm-3,32,R,ugm-3,2.9,R,ugm-3
10-01-2009,10:00,2.6,R,ugm-3,22.7,R,ugm-3,26.7,R,ugm-3,28,R,ugm-3,3.7,R,ugm-3
10-01-2009,11:00,3.9,R,ugm-3,23.7,R,ugm-3,29.6,R,ugm-3,26,R,ugm-3,3.7,R,ugm-3
10-01-2009,12:00,4.3,R,ugm-3,21.8,R,ugm-3,28.3,R,ugm-3,30,R,ugm-3,3.7,R,ugm-3
10-01-2009,13:00,2.5,R,ugm-3,14.9,R,ugm-3,18.7,R,ugm-3,42,R,ugm-3,3.7,R,ugm-3
10-01-2009,14:00,1.3,R,ugm-3,16.8,R,ugm-3,18.7,R,ugm-3,40,R,ugm-3,3.7,R,ugm-3
10-01-2009,15:00,1.3,R,ugm-3,22.2,R,ugm-3,24.1,R,ugm-3,32,R,ugm-3,3.7,R,ugm-3
10-01-2009,16:00,1.3,R,ugm-3,16.8,R,ugm-3,18.7,R,ugm-3,42,R,ugm-3,1.9,R,ugm-3
10-01-2009,17:00,1.0,R,ugm-3,14.9,R,ugm-3,16.4,R,ugm-3,40,R,ugm-3,1.9,R,ugm-3
10-01-2009,18:00,0.6,R,ugm-3,13.4,R,ugm-3,14.3,R,ugm-3,42,R,ugm-3,1.9,R,ugm-3
10-01-2009,19:00,1.0,R,ugm-3,16.8,R,ugm-3,18.3,R,ugm-3,34,R,ugm-3,3.7,R,ugm-3
10-01-2009,20:00,0.6,R,ugm-3,16.8,R,ugm-3,17.8,R,ugm-3,36,R,ugm-3,2.9,R,ugm-3
10-01-2009,21:00,1.3,R,ugm-3,13.4,R,ugm-3,15.3,R,ugm-3,38,R,ugm-3,3.7,R,ugm-3
10-01-2009,22:00,1.0,R,ugm-3,9.6,R,ugm-3,11.1,R,ugm-3,44,R,ugm-3,1.9,R,ugm-3
10-01-2009,23:00,1.0,R,ugm-3,8.0,R,ugm-3,9.6,R,ugm-3,48,R,ugm-3,1.9,R,ugm-3
10-01-2009,24:00,1.3,R,ugm-3,5.0,R,ugm-3,6.9,R,ugm-3,50,R,ugm-3,0.5,R,ugm-3
11-01-2009,01:00,0.4,R,ugm-3,5.3,R,ugm-3,5.9,R,ugm-3,50,R,ugm-3,2.4,R,ugm-3
11-01-2009,02:00,0.0,R,ugm-3,2.7,R,ugm-3,2.7,R,ugm-3,56,R,ugm-3,3.7,R,ugm-3
11-01-2009,03:00,1.3,R,ugm-3,0.0,R,ugm-3,1.9,R,ugm-3,60,R,ugm-3,3.7,R,ugm-3
11-01-2009,04:00,1.3,R,ugm-3,0.0,R,ugm-3,1.9,R,ugm-3,60,R,ugm-3,3.7,R,ugm-3
11-01-2009,05:00,1.3,R,ugm-3,1.1,R,ugm-3,3.1,R,ugm-3,58,R,ugm-3,3.7,R,ugm-3
11-01-2009,06:00,1.3,R,ugm-3,2.1,R,ugm-3,4.0,R,ugm-3,56,R,ugm-3,3.2,R,ugm-3
11-01-2009,07:00,1.3,R,ugm-3,0.6,R,ugm-3,2.5,R,ugm-3,60,R,ugm-3,2.4,R,ugm-3
11-01-2009,08:00,1.3,R,ugm-3,0.6,R,ugm-3,2.5,R,ugm-3,60,R,ugm-3,3.7,R,ugm-3
11-01-2009,09:00,0.6,R,ugm-3,1.0,R,ugm-3,1.9,R,ugm-3,60,R,ugm-3,3.7,R,ugm-3
11-01-2009,10:00,1.3,R,ugm-3,0.6,R,ugm-3,2.5,R,ugm-3,60,R,ugm-3,3.7,R,ugm-3
11-01-2009,11:00,1.3,R,ugm-3,0.6,R,ugm-3,2.5,R,ugm-3,60,R,ugm-3,3.7,R,ugm-3
11-01-2009,12:00,1.3,R,ugm-3,1.5,R,ugm-3,3.4,R,ugm-3,64,R,ugm-3,3.7,R,ugm-3
11-01-2009,13:00,1.3,R,ugm-3,1.5,R,ugm-3,3.4,R,ugm-3,66,R,ugm-3,3.7,R,ugm-3
11-01-2009,14:00,1.3,R,ugm-3,2.1,R,ugm-3,4.0,R,ugm-3,64,R,ugm-3,3.7,R,ugm-3
11-01-2009,15:00,1.3,R,ugm-3,4.0,R,ugm-3,5.9,R,ugm-3,60,R,ugm-3,3.7,R,ugm-3
11-01-2009,16:00,1.3,R,ugm-3,4.6,R,ugm-3,6.5,R,ugm-3,60,R,ugm-3,3.2,R,ugm-3
11-01-2009,17:00,1.3,R,ugm-3,4.0,R,ugm-3,5.9,R,ugm-3,60,R,ugm-3,2.9,R,ugm-3
11-01-2009,18:00,1.3,R,ugm-3,4.0,R,ugm-3,5.9,R,ugm-3,60,R,ugm-3,1.9,R,ugm-3
11-01-2009,19:00,1.3,R,ugm-3,2.5,R,ugm-3,4.4,R,ugm-3,60,R,ugm-3,2.4,R,ugm-3
11-01-2009,20:00,1.3,R,ugm-3,2.1,R,ugm-3,4.0,R,ugm-3,58,R,ugm-3,1.9,R,ugm-3
11-01-2009,21:00,1.3,R,ugm-3,0.0,R,ugm-3,1.9,R,ugm-3,56,R,ugm-3,1.9,R,ugm-3
11-01-2009,22:00,1.3,R,ugm-3,1.1,R,ugm-3,3.1,R,ugm-3,56,R,ugm-3,1.9,R,ugm-3
11-01-2009,23:00,1.3,R,ugm-3,0.0,R,ugm-3,1.9,R,ugm-3,56,R,ugm-3,1.9,R,ugm-3
11-01-2009,24:00,1.3,R,ugm-3,0.0,R,ugm-3,1.9,R,ugm-3,56,R,ugm-3,1.9,R,ugm-3
12-01-2009,01:00,0.4,R,ugm-3,4.6,R,ugm-3,5.2,R,ugm-3,56,R,ugm-3,1.3,R,ugm-3
12-01-2009,02:00,1.3,R,ugm-3,4.0,R,ugm-3,5.9,R,ugm-3,56,R,ugm-3,1.9,R,ugm-3
12-01-2009,03:00,1.3,R,ugm-3,3.6,R,ugm-3,5.5,R,ugm-3,58,R,ugm-3,1.9,R,ugm-3
12-01-2009,04:00,1.0,R,ugm-3,2.5,R,ugm-3,4.0,R,ugm-3,60,R,ugm-3,1.9,R,ugm-3
12-01-2009,05:00,1.3,R,ugm-3,2.1,R,ugm-3,4.0,R,ugm-3,60,R,ugm-3,1.9,R,ugm-3
12-01-2009,06:00,1.3,R,ugm-3,2.1,R,ugm-3,4.0,R,ugm-3,62,R,ugm-3,1.9,R,ugm-3
12-01-2009,07:00,0.4,R,ugm-3,4.6,R,ugm-3,5.2,R,ugm-3,62,R,ugm-3,1.9,R,ugm-3
12-01-2009,08:00,0.6,R,ugm-3,4.6,R,ugm-3,5.5,R,ugm-3,64,R,ugm-3,1.1,R,ugm-3
12-01-2009,09:00,0.6,R,ugm-3,4.6,R,ugm-3,5.5,R,ugm-3,68,R,ugm-3,1.1,R,ugm-3
12-01-2009,10:00,1.3,R,ugm-3,5.0,R,ugm-3,6.9,R,ugm-3,62,R,ugm-3,1.9,R,ugm-3
12-01-2009,11:00,1.0,R,ugm-3,5.0,R,ugm-3,6.5,R,ugm-3,60,R,ugm-3,1.9,R,ugm-3
12-01-2009,12:00,1.3,R,ugm-3,5.9,R,ugm-3,7.8,R,ugm-3,60,R,ugm-3,1.9,R,ugm-3
12-01-2009,13:00,1.0,R,ugm-3,4.6,R,ugm-3,6.1,R,ugm-3,66,R,ugm-3,1.9,R,ugm-3
12-01-2009,14:00,0.4,R,ugm-3,3.1,R,ugm-3,3.6,R,ugm-3,68,R,ugm-3,1.9,R,ugm-3
12-01-2009,15:00,1.0,R,ugm-3,2.7,R,ugm-3,4.2,R,ugm-3,68,R,ugm-3,1.9,R,ugm-3
12-01-2009,16:00,0.6,R,ugm-3,1.5,R,ugm-3,2.5,R,ugm-3,70,R,ugm-3,1.9,R,ugm-3
12-01-2009,17:00,1.0,R,ugm-3,3.6,R,ugm-3,5.2,R,ugm-3,68,R,ugm-3,1.9,R,ugm-3
12-01-2009,18:00,1.0,R,ugm-3,3.6,R,ugm-3,5.2,R,ugm-3,66,R,ugm-3,1.9,R,ugm-3
12-01-2009,19:00,1.0,R,ugm-3,4.0,R,ugm-3,5.5,R,ugm-3,64,R,ugm-3,1.9,R,ugm-3
12-01-2009,20:00,1.3,R,ugm-3,3.6,R,ugm-3,5.5,R,ugm-3,66,R,ugm-3,1.9,R,ugm-3
12-01-2009,21:00,1.0,R,ugm-3,0.6,R,ugm-3,2.1,R,ugm-3,72,R,ugm-3,1.9,R,ugm-3
12-01-2009,22:00,1.3,R,ugm-3,0.0,R,ugm-3,1.9,R,ugm-3,74,R,ugm-3,1.9,R,ugm-3
12-01-2009,23:00,1.0,R,ugm-3,0.6,R,ugm-3,2.1,R,ugm-3,76,R,ugm-3,1.9,R,ugm-3
12-01-2009,24:00,1.3,R,ugm-3,0.0,R,ugm-3,1.9,R,ugm-3,72,R,ugm-3,1.9,R,ugm-3
13-01-2009,01:00,0.9,R,ugm-3,0.6,R,ugm-3,1.9,R,ugm-3,62,R,ugm-3,0.0,R,ugm-3
13-01-2009,02:00,0.9,R,ugm-3,0.6,R,ugm-3,1.9,R,ugm-3,72,R,ugm-3,0.0,R,ugm-3
13-01-2009,03:00,0.6,R,ugm-3,1.0,R,ugm-3,1.9,R,ugm-3,66,R,ugm-3,0.0,R,ugm-3
13-01-2009,04:00,0.6,R,ugm-3,1.0,R,ugm-3,1.9,R,ugm-3,66,R,ugm-3,0.0,R,ugm-3
13-01-2009,05:00,1.3,R,ugm-3,0.0,R,ugm-3,1.9,R,ugm-3,72,R,ugm-3,0.0,R,ugm-3
13-01-2009,06:00,1.3,R,ugm-3,0.0,R,ugm-3,1.9,R,ugm-3,70,R,ugm-3,0.0,R,ugm-3
13-01-2009,07:00,1.3,R,ugm-3,0.0,R,ugm-3,1.9,R,ugm-3,70,R,ugm-3,0.0,R,ugm-3
13-01-2009,08:00,1.0,R,ugm-3,1.0,R,ugm-3,2.5,R,ugm-3,68,R,ugm-3,0.0,R,ugm-3
13-01-2009,09:00,1.3,R,ugm-3,0.6,R,ugm-3,2.5,R,ugm-3,66,R,ugm-3,0.0,R,ugm-3
13-01-2009,10:00,1.3,R,ugm-3,0.0,R,ugm-3,1.9,R,ugm-3,64,R,ugm-3,0.0,R,ugm-3
13-01-2009,11:00,1.3,R,ugm-3,0.6,R,ugm-3,2.5,R,ugm-3,66,R,ugm-3,0.0,R,ugm-3
13-01-2009,12:00,1.3,R,ugm-3,4.0,R,ugm-3,5.9,R,ugm-3,62,R,ugm-3,1.1,R,ugm-3
13-01-2009,13:00,1.3,R,ugm-3,18.3,R,ugm-3,20.2,R,ugm-3,46,R,ugm-3,4.3,R,ugm-3
13-01-2009,14:00,1.3,R,ugm-3,15.9,R,ugm-3,17.8,R,ugm-3,48,R,ugm-3,1.1,R,ugm-3
13-01-2009,15:00,1.3,R,ugm-3,15.3,R,ugm-3,17.2,R,ugm-3,50,R,ugm-3,0.0,R,ugm-3
13-01-2009,16:00,1.3,R,ugm-3,15.3,R,ugm-3,17.2,R,ugm-3,52,R,ugm-3,0.0,R,ugm-3
13-01-2009,17:00,1.3,R,ugm-3,23.7,R,ugm-3,25.6,R,ugm-3,44,R,ugm-3,0.0,R,ugm-3
13-01-2009,18:00,1.3,R,ugm-3,19.7,R,ugm-3,21.6,R,ugm-3,42,R,ugm-3,0.0,R,ugm-3
13-01-2009,19:00,1.3,R,ugm-3,12.8,R,ugm-3,14.7,R,ugm-3,50,R,ugm-3,0.0,R,ugm-3
13-01-2009,20:00,1.3,R,ugm-3,14.3,R,ugm-3,16.2,R,ugm-3,48,R,ugm-3,0.0,R,ugm-3
13-01-2009,21:00,1.0,R,ugm-3,11.8,R,ugm-3,13.4,R,ugm-3,48,R,ugm-3,0.0,R,ugm-3